N100CX ZF3C-UAAT

Flight info

Callsign N100CX
Flight time N/A
Altitude 7000
Route 4322N07636E USUGA DETAK APSEN IDILI
Aircraft C414/L-S/N

Departure

Time N/A
Airport ZF3C

Arrival

Time 2026-04-26 19:22
Airport Taldykorgan Airport (UAAT)
Time Latitude Longitude Altitude Speed Heading
2026-04-26 18:06 43.18702 76.55741 2960 ft 0 kts 232°
2026-04-26 18:16 43.18701 76.55739 2961 ft 2 kts 232°
2026-04-26 18:16 43.18735 76.55736 2955 ft 13 kts 347°
2026-04-26 18:16 43.18758 76.55656 2957 ft 12 kts 256°
2026-04-26 18:17 43.18728 76.55505 2962 ft 20 kts 254°
2026-04-26 18:17 43.18701 76.55352 2962 ft 7 kts 201°
2026-04-26 18:17 43.18700 76.55380 2962 ft 6 kts 77°
2026-04-26 18:17 43.18701 76.55387 2962 ft 4 kts 78°
2026-04-26 18:18 43.18701 76.55391 2962 ft 0 kts 77°
2026-04-26 18:19 43.18702 76.55394 2962 ft 6 kts 76°
2026-04-26 18:19 43.18764 76.55709 2955 ft 61 kts 76°
2026-04-26 18:20 43.18919 76.56460 2986 ft 94 kts 72°
2026-04-26 18:20 43.19155 76.57336 3105 ft 106 kts 69°
2026-04-26 18:20 43.19640 76.58055 3279 ft 111 kts 10°
2026-04-26 18:20 43.20178 76.58126 3277 ft 122 kts 359°
2026-04-26 18:21 43.21347 76.58007 3490 ft 131 kts 348°
2026-04-26 18:21 43.22254 76.57747 3673 ft 135 kts 336°
2026-04-26 18:21 43.23106 76.57210 3903 ft 138 kts 339°
2026-04-26 18:21 43.24085 76.57094 4181 ft 147 kts 359°
2026-04-26 18:22 43.25110 76.57304 4439 ft 150 kts
2026-04-26 18:22 43.26132 76.57545 4687 ft 149 kts
2026-04-26 18:22 43.27152 76.57782 4937 ft 149 kts
2026-04-26 18:22 43.28167 76.58016 5159 ft 149 kts
2026-04-26 18:23 43.29183 76.58251 5400 ft 147 kts
2026-04-26 18:23 43.30179 76.58483 5633 ft 143 kts
2026-04-26 18:23 43.31146 76.58708 5864 ft 139 kts
2026-04-26 18:23 43.32091 76.58927 6096 ft 137 kts
2026-04-26 18:24 43.33020 76.59143 6333 ft 135 kts
2026-04-26 18:24 43.33938 76.59356 6578 ft 134 kts
2026-04-26 18:24 43.34852 76.59570 6795 ft 133 kts
2026-04-26 18:24 43.35772 76.59780 6959 ft 139 kts
2026-04-26 18:25 43.36755 76.59720 6974 ft 147 kts 333°
2026-04-26 18:25 43.37616 76.58899 6979 ft 157 kts 316°
2026-04-26 18:25 43.38473 76.57890 6977 ft 167 kts 316°
2026-04-26 18:25 43.39375 76.56840 6974 ft 174 kts 317°
2026-04-26 18:26 43.40307 76.55758 6976 ft 178 kts 317°
2026-04-26 18:26 43.41252 76.54647 6974 ft 180 kts 316°
2026-04-26 18:26 43.42208 76.53524 6975 ft 183 kts 316°
2026-04-26 18:26 43.43179 76.52385 6962 ft 184 kts 317°
2026-04-26 18:27 43.44158 76.51239 6960 ft 186 kts 317°
2026-04-26 18:27 43.45142 76.50086 6971 ft 187 kts 319°
2026-04-26 18:27 43.46125 76.48934 6973 ft 186 kts 319°
2026-04-26 18:27 43.47109 76.47778 6970 ft 186 kts 319°
2026-04-26 18:28 43.48093 76.46623 6965 ft 186 kts 319°
2026-04-26 18:28 43.49076 76.45471 6965 ft 186 kts 319°
2026-04-26 18:28 43.50052 76.44317 6962 ft 185 kts 319°
2026-04-26 18:28 43.51033 76.43172 6961 ft 185 kts 319°
2026-04-26 18:29 43.52015 76.42022 6962 ft 186 kts 319°
2026-04-26 18:29 43.52996 76.40867 6961 ft 186 kts 319°
2026-04-26 18:29 43.53974 76.39714 6962 ft 185 kts 319°
2026-04-26 18:29 43.54951 76.38564 6960 ft 185 kts 319°
2026-04-26 18:30 43.55927 76.37414 6959 ft 185 kts 319°
2026-04-26 18:30 43.56902 76.36266 6953 ft 184 kts 319°
2026-04-26 18:30 43.57952 76.35280 6958 ft 185 kts 336°
2026-04-26 18:30 43.59217 76.34959 6960 ft 188 kts 359°
2026-04-26 18:31 43.60478 76.35391 7061 ft 186 kts 23°
2026-04-26 18:31 43.61481 76.36460 7290 ft 182 kts 46°
2026-04-26 18:31 43.62141 76.37930 7517 ft 179 kts 58°
2026-04-26 18:31 43.62742 76.39401 7746 ft 175 kts 58°
2026-04-26 18:32 43.63329 76.40849 7979 ft 172 kts 58°
2026-04-26 18:32 43.63903 76.42274 8213 ft 169 kts 58°
2026-04-26 18:32 43.64470 76.43682 8449 ft 167 kts 58°
2026-04-26 18:32 43.65033 76.45079 8690 ft 166 kts 59°
2026-04-26 18:33 43.65590 76.46467 8925 ft 165 kts 59°
2026-04-26 18:33 43.66145 76.47844 9168 ft 164 kts 59°
2026-04-26 18:33 43.66696 76.49215 9417 ft 163 kts 59°
2026-04-26 18:33 43.67247 76.50584 9663 ft 163 kts 61°
2026-04-26 18:34 43.67795 76.51951 9911 ft 163 kts 61°
2026-04-26 18:34 43.68344 76.53316 10143 ft 163 kts 61°
2026-04-26 18:34 43.68889 76.54677 10376 ft 162 kts 61°
2026-04-26 18:34 43.69435 76.56038 10607 ft 162 kts 61°
2026-04-26 18:35 43.69979 76.57397 10846 ft 162 kts 60°
2026-04-26 18:35 43.70524 76.58755 11083 ft 162 kts 60°
2026-04-26 18:35 43.71071 76.60122 11323 ft 163 kts 60°
2026-04-26 18:35 43.71617 76.61486 11565 ft 163 kts 60°
2026-04-26 18:36 43.72165 76.62854 11808 ft 163 kts 60°
2026-04-26 18:36 43.72714 76.64228 12054 ft 164 kts 60°
2026-04-26 18:36 43.73262 76.65599 12298 ft 164 kts 60°
2026-04-26 18:36 43.73812 76.66976 12548 ft 164 kts 60°
2026-04-26 18:37 43.74362 76.68353 12797 ft 164 kts 60°
2026-04-26 18:37 43.74914 76.69737 13028 ft 166 kts 60°
2026-04-26 18:37 43.75493 76.71192 13068 ft 180 kts 60°
2026-04-26 18:37 43.76117 76.72763 13071 ft 193 kts 60°
2026-04-26 18:38 43.76777 76.74420 13067 ft 200 kts 60°
2026-04-26 18:38 43.77458 76.76130 13065 ft 206 kts 60°
2026-04-26 18:38 43.78155 76.77880 13066 ft 210 kts 60°
2026-04-26 18:38 43.78861 76.79656 13061 ft 213 kts 60°
2026-04-26 18:39 43.79574 76.81452 13062 ft 214 kts 60°
2026-04-26 18:39 43.80294 76.83262 13062 ft 215 kts 60°
2026-04-26 18:39 43.81093 76.85008 13058 ft 215 kts 52°
2026-04-26 18:39 43.81998 76.86651 13055 ft 216 kts 52°
2026-04-26 18:40 43.82904 76.88316 13052 ft 217 kts 52°
2026-04-26 18:40 43.83806 76.89991 13056 ft 218 kts 52°
2026-04-26 18:40 43.84713 76.91673 13055 ft 219 kts 52°
2026-04-26 18:40 43.85621 76.93357 13057 ft 219 kts 52°
2026-04-26 18:41 43.86531 76.95044 13056 ft 219 kts 52°
2026-04-26 18:41 43.87443 76.96735 13055 ft 220 kts 52°
2026-04-26 18:41 43.88357 76.98433 13056 ft 220 kts 52°
2026-04-26 18:41 43.89272 77.00133 13060 ft 220 kts 52°
2026-04-26 18:42 43.90183 77.01829 13057 ft 218 kts 52°
2026-04-26 18:42 43.91080 77.03496 13051 ft 215 kts 52°
2026-04-26 18:42 43.91966 77.05144 13045 ft 212 kts 52°
2026-04-26 18:42 43.92840 77.06774 13043 ft 210 kts 52°
2026-04-26 18:43 43.93708 77.08390 13047 ft 209 kts 52°
2026-04-26 18:43 43.94574 77.10003 13042 ft 208 kts 52°
2026-04-26 18:43 43.95433 77.11607 13042 ft 207 kts 52°
2026-04-26 18:43 43.96291 77.13209 13045 ft 207 kts 52°
2026-04-26 18:44 43.97148 77.14809 13037 ft 207 kts 52°
2026-04-26 18:44 43.98002 77.16404 13038 ft 206 kts 52°
2026-04-26 18:44 43.98854 77.17997 13040 ft 206 kts 52°
2026-04-26 18:44 43.99705 77.19589 13034 ft 206 kts 52°
2026-04-26 18:45 44.00557 77.21183 13040 ft 206 kts 52°
2026-04-26 18:45 44.01407 77.22774 13044 ft 206 kts 52°
2026-04-26 18:45 44.02258 77.24368 13042 ft 206 kts 52°
2026-04-26 18:45 44.03110 77.25964 13043 ft 206 kts 52°
2026-04-26 18:46 44.03960 77.27560 13047 ft 206 kts 52°
2026-04-26 18:46 44.04810 77.29155 13045 ft 206 kts 52°
2026-04-26 18:46 44.05662 77.30754 13044 ft 206 kts 52°
2026-04-26 18:46 44.06573 77.32280 13048 ft 205 kts 44°
2026-04-26 18:47 44.07562 77.33704 13051 ft 205 kts 44°
2026-04-26 18:47 44.08542 77.35140 13051 ft 206 kts 45°
2026-04-26 18:47 44.09523 77.36584 13051 ft 206 kts 45°
2026-04-26 18:47 44.10505 77.38029 13051 ft 206 kts 45°
2026-04-26 18:48 44.11485 77.39471 13060 ft 206 kts 44°
2026-04-26 18:48 44.12468 77.40918 13059 ft 206 kts 44°
2026-04-26 18:48 44.13453 77.42367 13060 ft 206 kts 44°
2026-04-26 18:48 44.14438 77.43818 13060 ft 206 kts 44°
2026-04-26 18:49 44.15421 77.45266 13063 ft 206 kts 44°
2026-04-26 18:49 44.16404 77.46716 13062 ft 206 kts 44°
2026-04-26 18:49 44.17388 77.48167 13060 ft 207 kts 44°
2026-04-26 18:49 44.18373 77.49622 13062 ft 207 kts 44°
2026-04-26 18:50 44.19357 77.51074 13054 ft 207 kts 44°
2026-04-26 18:50 44.20341 77.52529 13062 ft 207 kts 44°
2026-04-26 18:50 44.21325 77.53984 13059 ft 207 kts 45°
2026-04-26 18:50 44.22309 77.55441 13061 ft 207 kts 45°
2026-04-26 18:51 44.23294 77.56900 13066 ft 207 kts 45°
2026-04-26 18:51 44.24281 77.58361 13070 ft 207 kts 45°
2026-04-26 18:51 44.25268 77.59823 13068 ft 207 kts 44°
2026-04-26 18:51 44.26251 77.61280 13072 ft 206 kts 44°
2026-04-26 18:52 44.27232 77.62735 13067 ft 206 kts 44°
2026-04-26 18:52 44.28212 77.64188 13067 ft 206 kts 44°
2026-04-26 18:52 44.29190 77.65641 13067 ft 206 kts 44°
2026-04-26 18:52 44.30169 77.67093 13077 ft 206 kts 44°
2026-04-26 18:53 44.31146 77.68546 13079 ft 205 kts 45°
2026-04-26 18:53 44.32119 77.69993 13078 ft 205 kts 44°
2026-04-26 18:53 44.33093 77.71441 13079 ft 205 kts 44°
2026-04-26 18:53 44.34068 77.72894 13077 ft 206 kts 45°
2026-04-26 18:54 44.35046 77.74351 13069 ft 206 kts 45°
2026-04-26 18:54 44.36023 77.75806 13065 ft 205 kts 45°
2026-04-26 18:54 44.36994 77.77253 13068 ft 204 kts 45°
2026-04-26 18:54 44.37964 77.78700 13069 ft 204 kts 45°
2026-04-26 18:55 44.38936 77.80149 13074 ft 205 kts 45°
2026-04-26 18:55 44.39907 77.81601 13072 ft 205 kts 45°
2026-04-26 18:55 44.40875 77.83047 13072 ft 204 kts 45°
2026-04-26 18:55 44.41844 77.84493 13072 ft 204 kts 45°
2026-04-26 18:56 44.42812 77.85942 13072 ft 204 kts 45°
2026-04-26 18:56 44.43780 77.87390 13071 ft 204 kts 45°
2026-04-26 18:56 44.44746 77.88837 13067 ft 204 kts 45°
2026-04-26 18:56 44.45709 77.90279 13072 ft 204 kts 45°
2026-04-26 18:57 44.46676 77.91727 13076 ft 203 kts 44°
2026-04-26 18:57 44.47317 77.92689 13076 ft 203 kts 44°
2026-04-26 18:57 44.48597 77.94608 13077 ft 202 kts 44°
2026-04-26 18:57 44.49554 77.96047 13074 ft 202 kts 44°
2026-04-26 18:58 44.50511 77.97483 13071 ft 202 kts 43°
2026-04-26 18:58 44.51464 77.98912 13073 ft 201 kts 44°
2026-04-26 18:58 44.52415 78.00342 13068 ft 201 kts 44°
2026-04-26 18:58 44.53371 78.01781 13070 ft 202 kts 44°
2026-04-26 18:59 44.54329 78.03223 13066 ft 203 kts 44°
2026-04-26 18:59 44.55287 78.04666 13073 ft 203 kts 44°
2026-04-26 18:59 44.56246 78.06109 13077 ft 202 kts 44°
2026-04-26 18:59 44.57205 78.07552 13079 ft 203 kts 44°
2026-04-26 19:00 44.58164 78.08999 13078 ft 203 kts 44°
2026-04-26 19:00 44.59124 78.10446 13078 ft 204 kts 44°
2026-04-26 19:00 44.60109 78.11861 13074 ft 201 kts 35°
2026-04-26 19:00 44.61315 78.12773 13063 ft 196 kts 18°
2026-04-26 19:01 44.62571 78.13527 13065 ft 197 kts 19°
2026-04-26 19:01 44.63825 78.14297 13070 ft 197 kts 19°
2026-04-26 19:01 44.65067 78.15055 13064 ft 192 kts 19°
2026-04-26 19:01 44.66277 78.15790 13058 ft 188 kts 19°
2026-04-26 19:02 44.67463 78.16512 13059 ft 184 kts 19°
2026-04-26 19:02 44.68631 78.17219 13058 ft 182 kts 18°
2026-04-26 19:02 44.69788 78.17922 13046 ft 181 kts 19°
2026-04-26 19:02 44.70552 78.18388 13056 ft 179 kts 19°
2026-04-26 19:03 44.72101 78.19333 12907 ft 186 kts 19°
2026-04-26 19:03 44.73300 78.20063 12748 ft 191 kts 19°
2026-04-26 19:03 44.74511 78.20804 12501 ft 191 kts 19°
2026-04-26 19:03 44.75733 78.21550 12270 ft 192 kts 19°
2026-04-26 19:04 44.76943 78.22290 12098 ft 189 kts 19°
2026-04-26 19:04 44.78144 78.23023 11924 ft 188 kts 20°
2026-04-26 19:04 44.79344 78.23755 11743 ft 188 kts 20°
2026-04-26 19:04 44.80541 78.24488 11574 ft 188 kts 20°
2026-04-26 19:05 44.82923 78.25946 11229 ft 186 kts 20°
2026-04-26 19:05 44.84105 78.26669 11058 ft 185 kts 20°
2026-04-26 19:05 44.85281 78.27388 10892 ft 185 kts 20°
2026-04-26 19:06 44.86455 78.28109 10713 ft 184 kts 20°
2026-04-26 19:06 44.87627 78.28826 10546 ft 184 kts 20°
2026-04-26 19:06 44.88793 78.29542 10380 ft 183 kts 20°
2026-04-26 19:06 44.89959 78.30258 10215 ft 183 kts 20°
2026-04-26 19:07 44.91122 78.30971 10054 ft 183 kts 20°
2026-04-26 19:07 44.92284 78.31685 9889 ft 182 kts 20°
2026-04-26 19:07 44.93444 78.32398 9704 ft 182 kts 20°
2026-04-26 19:07 44.94601 78.33109 9515 ft 182 kts 20°
2026-04-26 19:08 44.95759 78.33821 9334 ft 182 kts 20°
2026-04-26 19:08 44.96916 78.34532 9157 ft 181 kts 20°
2026-04-26 19:08 44.98071 78.35244 8982 ft 181 kts 20°
2026-04-26 19:08 44.99223 78.35952 8817 ft 182 kts 21°
2026-04-26 19:09 45.00383 78.36668 8635 ft 182 kts 21°
2026-04-26 19:09 45.01543 78.37382 8467 ft 182 kts 21°
2026-04-26 19:09 45.02703 78.38098 8288 ft 182 kts 21°
2026-04-26 19:09 45.03862 78.38813 8116 ft 182 kts 21°
2026-04-26 19:10 45.05023 78.39529 7945 ft 182 kts 20°
2026-04-26 19:10 45.06182 78.40245 7780 ft 182 kts 20°
2026-04-26 19:10 45.07338 78.40959 7609 ft 182 kts 20°
2026-04-26 19:10 45.08493 78.41673 7446 ft 181 kts 21°
2026-04-26 19:11 45.09641 78.42382 7286 ft 180 kts 21°
2026-04-26 19:11 45.10811 78.42980 7104 ft 178 kts
2026-04-26 19:11 45.12033 78.43045 6939 ft 176 kts 358°
2026-04-26 19:11 45.13253 78.43112 6775 ft 176 kts 359°
2026-04-26 19:12 45.14469 78.43176 6610 ft 175 kts 359°
2026-04-26 19:12 45.15686 78.43237 6447 ft 175 kts 359°
2026-04-26 19:12 45.16901 78.43294 6277 ft 175 kts 359°
2026-04-26 19:12 45.18114 78.43353 6104 ft 175 kts 359°
2026-04-26 19:13 45.19327 78.43414 5926 ft 174 kts 359°
2026-04-26 19:13 45.20531 78.43473 5754 ft 173 kts 359°
2026-04-26 19:13 45.21729 78.43529 5583 ft 173 kts 359°
2026-04-26 19:13 45.22930 78.43587 5413 ft 173 kts 359°
2026-04-26 19:14 45.24132 78.43647 5249 ft 173 kts 359°
2026-04-26 19:14 45.25336 78.43705 5080 ft 174 kts 359°
2026-04-26 19:14 45.26566 78.43765 4799 ft 180 kts
2026-04-26 19:14 45.26984 78.43786 4705 ft 181 kts
2026-04-26 19:15 45.28998 78.44089 4605 ft 169 kts 19°
2026-04-26 19:15 45.29965 78.44950 4602 ft 162 kts 44°
2026-04-26 19:15 45.30596 78.46219 4608 ft 155 kts 68°
2026-04-26 19:15 45.30840 78.47678 4596 ft 151 kts 91°
2026-04-26 19:16 45.30698 78.49126 4533 ft 150 kts 114°
2026-04-26 19:16 45.30251 78.50471 4394 ft 153 kts 121°
2026-04-26 19:16 45.29790 78.51833 4316 ft 152 kts 120°
2026-04-26 19:16 45.29322 78.53165 4317 ft 150 kts 125°
2026-04-26 19:17 45.28589 78.54129 4304 ft 143 kts 158°
2026-04-26 19:17 45.27654 78.54477 4316 ft 138 kts 179°
2026-04-26 19:17 45.26717 78.54225 4250 ft 140 kts 205°
2026-04-26 19:17 45.25836 78.53607 4165 ft 143 kts 206°
2026-04-26 19:18 45.24930 78.52982 4080 ft 146 kts 207°
2026-04-26 19:18 45.24010 78.52338 3984 ft 149 kts 207°
2026-04-26 19:18 45.23074 78.51678 3866 ft 151 kts 207°
2026-04-26 19:18 45.22143 78.51021 3746 ft 148 kts 207°
2026-04-26 19:19 45.21215 78.50369 3536 ft 150 kts 207°
2026-04-26 19:19 45.20294 78.49733 3430 ft 145 kts 207°
2026-04-26 19:19 45.19396 78.49130 3325 ft 142 kts 206°
2026-04-26 19:19 45.18492 78.48519 3096 ft 147 kts 204°
2026-04-26 19:20 45.17580 78.47903 2839 ft 144 kts 204°
2026-04-26 19:20 45.16985 78.47501 2672 ft 142 kts 204°
2026-04-26 19:20 45.15929 78.46785 2330 ft 117 kts 205°
2026-04-26 19:20 45.15206 78.46284 2211 ft 115 kts 204°
2026-04-26 19:21 45.14486 78.45799 2116 ft 113 kts 202°
2026-04-26 19:21 45.13785 78.45333 2016 ft 110 kts 201°
2026-04-26 19:21 45.13136 78.44886 1936 ft 93 kts 205°
2026-04-26 19:21 45.12638 78.44540 1934 ft 70 kts 206°
2026-04-26 19:22 45.12227 78.44253 1931 ft 62 kts 207°
2026-04-26 19:22 45.11854 78.43996 1934 ft 57 kts 206°
2026-04-26 19:22 45.11517 78.43761 1933 ft 51 kts 205°
2026-04-26 19:22 45.11269 78.43601 1934 ft 22 kts 169°
2026-04-26 19:23 45.11211 78.43714 1933 ft 13 kts 117°
2026-04-26 19:23 45.11168 78.43830 1933 ft 16 kts 129°
2026-04-26 19:23 45.11082 78.43922 1933 ft 12 kts 205°
2026-04-26 19:23 45.11055 78.43882 1933 ft 0 kts 228°